[[{"header":{"parameterUnit":"m.s-1","parameterCategory":1,"la1":30.2991,"la2":30.254,"lo1":-89.0895,"lo2":-89.0444,"dy":0.0017,"dx":0.0017,"nx":28,"ny":28,"refTime":"2023-08-29T21:00:00:Z","depth":0,"parameterNumber":2,"parameterNumberName":"U-component_of_WINDS"},"data":[0,0,0,0,0,0,0,0,0,0,0,0,0,0,0,0,0,0,0,0,0,0,0,0,0,0,0,0,0,0,0,0,0,0,0,0,0,0,0,0,0,0,0,0,0,0,0,0,0,0,0,0,0,0,0,0,0,0,-2.2577,-2.2577,0,-2.2515,-2.2514,-2.2514,-2.2397,-2.2394,-2.2392,-2.239,-2.233,-2.233,-2.2331,0,0,0,0,0,0,0,0,0,0,0,0,0,-2.2599,-2.2599,-2.2577,-2.2577,-2.2576,-2.2515,-2.2514,-2.2513,-2.2397,-2.2394,-2.2391,-2.2389,-2.233,-2.233,-2.2331,0,0,0,0,0,0,0,0,0,0,0,0,0,-2.2569,-2.2599,-2.2577,-2.251,-2.2504,-2.2515,-2.2514,-2.2513,-2.2397,-2.2394,-2.2391,-2.2387,-2.2329,-2.233,-2.2331,-2.2404,0,0,-2.2333,-2.2334,0,0,0,0,0,0,0,0,-2.2571,-2.2568,-2.2521,-2.2515,-2.2507,-2.246,-2.25,-2.2477,-2.2398,-2.2438,-2.239,-2.2386,-2.2376,-2.2373,-2.2369,-2.2401,-2.2399,-2.2333,-2.2334,-2.2334,-2.2334,0,0,0,0,0,0,0,-2.2573,-2.257,-2.2553,-2.252,-2.2512,-2.2484,-2.2476,-2.2495,-2.2427,-2.2434,-2.2426,-2.242,-2.2372,-2.2368,-2.2366,-2.2398,-2.2333,-2.2334,-2.2334,-2.2335,-2.2487,-2.2491,0,0,0,0,0,0,-2.2584,-2.2573,-2.2555,-2.2551,-2.2531,-2.2487,-2.2478,-2.2479,-2.2426,-2.2415,-2.2423,-2.2414,-2.2369,-2.2366,-2.2364,-2.2446,-2.2334,-2.2335,-2.2335,-2.2484,-2.2488,-2.2492,0,0,0,0,0,0,-2.2585,-2.2584,-2.2557,-2.2559,-2.2554,-2.249,-2.2492,-2.2479,-2.2475,-2.2418,-2.2405,-2.2431,-2.2366,-2.2363,-2.2395,-2.2442,-2.2335,-2.2336,-2.248,-2.2485,-2.249,-2.2611,0,0,0,0,0,0,-2.2586,-2.2585,-2.2611,-2.2561,-2.2554,-2.2588,-2.2495,-2.2481,-2.2477,-2.2465,-2.2422,-2.2412,-2.2363,-2.2394,-2.2396,-2.2441,-2.2337,-2.2475,-2.2482,-2.2489,-2.2602,-2.262,-2.2634,0,0,0,0,0,-2.2587,-2.2648,-2.2613,-2.2611,-2.2585,-2.2591,-2.2587,-2.2529,-2.2481,-2.2507,-2.247,-2.2413,-2.2437,-2.2398,-2.2399,-2.2446,-2.2472,-2.248,-2.2488,-2.2595,-2.2616,-2.2634,0,0,0,0,0,0,-2.2707,-2.264,-2.26,-2.2647,-2.2625,-2.2571,-2.2603,-2.2553,-2.2546,-2.2535,-2.2464,-2.2455,-2.2497,-2.2474,-2.2433,-2.2514,-2.2445,-2.2454,-2.2527,-2.2546,-2.2562,-2.2566,-2.2337,0,0,0,0,0,-2.2738,-2.2748,-2.2689,-2.2736,-2.2727,-2.2667,-2.2668,-2.2624,-2.2599,-2.259,-2.2555,-2.2535,-2.2537,-2.2541,-2.254,-2.2599,-2.2588,-2.2631,-2.2647,-2.2661,-2.2669,-2.2699,-2.2717,-2.2519,-2.2519,-2.2518,0,0,-2.2804,-2.2769,-2.2779,-2.2759,-2.2737,-2.2749,-2.266,-2.2677,-2.2685,-2.2593,-2.262,-2.2595,-2.2567,-2.2613,-2.2631,-2.2596,-2.2722,-2.2671,-2.2682,-2.2683,-2.2709,-2.2728,-2.2744,-2.2524,-2.2523,-2.2522,0,0,-2.2929,-2.2904,-2.2939,-2.2919,-2.2887,-2.2847,-2.2856,-2.281,-2.2788,-2.2815,-2.2746,-2.2756,-2.2762,-2.2745,-2.2737,-2.2857,-2.2804,-2.2859,-2.2943,-2.2973,-2.2988,-2.3002,-2.3044,-2.306,-2.2867,-2.2868,-2.2868,0,-2.3015,-2.3029,-2.2964,-2.2985,-2.2978,-2.2894,-2.293,-2.2915,-2.2885,-2.2883,-2.2843,-2.2849,-2.2824,-2.2865,-2.2894,-2.2891,-2.2899,-2.2863,-2.2991,-2.3004,-2.3016,-2.3055,-2.3072,-2.2875,-2.2874,-2.2873,-2.2872,0,-2.3136,-2.3147,-2.318,-2.3152,-2.3149,-2.3178,-2.3118,-2.3123,-2.3081,-2.3045,-2.3074,-2.3042,-2.3033,-2.3039,-2.2998,-2.3075,-2.3053,-2.3004,-2.2933,-2.3042,-2.3078,-2.3093,-2.2884,-2.2882,-2.288,-2.2878,0,0,-2.3334,-2.3269,-2.3283,-2.3269,-2.3228,-2.3236,-2.3261,-2.3251,-2.3257,-2.324,-2.326,-2.3267,-2.3221,-2.3212,-2.3169,-2.3195,-2.3292,-2.3141,-2.314,-2.317,-2.3374,-2.3411,-2.343,-2.3257,-2.326,-2.3262,-2.3376,0,-2.345,-2.3487,-2.343,-2.3482,-2.3491,-2.3412,-2.3434,-2.3413,-2.3381,-2.3385,-2.335,-2.3356,-2.3295,-2.3289,-2.3311,-2.3275,-2.3332,-2.3266,-2.3275,-2.3277,-2.3284,-2.3449,-2.3488,-2.3598,-2.339,-2.3392,-2.3394,0,-2.3589,-2.3578,-2.363,-2.3586,-2.3588,-2.3608,-2.3595,-2.36,-2.3574,-2.3549,-2.354,-2.3488,-2.3511,-2.3443,-2.3474,-2.3431,-2.3432,-2.3415,-2.3418,-2.3416,-2.3342,-2.3451,-2.3631,-2.3648,-2.3416,-2.3414,-2.3413,0,-2.3728,-2.3726,-2.3756,-2.3747,-2.3697,-2.3713,-2.3693,-2.3663,-2.3661,-2.3651,-2.3649,-2.3641,-2.3637,-2.3633,-2.3581,-2.3537,-2.3619,-2.3547,-2.3599,-2.36,-2.3619,-2.3618,-2.3801,-2.3621,-2.3621,-2.362,-2.362,0,-2.3863,-2.3898,-2.3818,-2.3837,-2.3874,-2.3809,-2.3848,-2.382,-2.3795,-2.3808,-2.374,-2.3754,-2.3684,-2.3691,-2.365,-2.3682,-2.3681,-2.3662,-2.3651,-2.3668,-2.367,-2.3666,-2.3657,-2.3624,-2.3624,-2.3623,-2.3622,0,-2.4024,-2.3971,-2.4,-2.3949,-2.3938,-2.3967,-2.3925,-2.3941,-2.3905,-2.3922,-2.3922,-2.3866,-2.3871,-2.3818,-2.3813,-2.3786,-2.3836,-2.3812,-2.3845,-2.3837,-2.3892,-2.3887,-2.4078,-2.41,-2.3907,-2.3909,-2.391,0,-2.4113,-2.4138,-2.409,-2.4093,-2.4076,-2.4083,-2.408,-2.4017,-2.4017,-2.399,-2.401,-2.4008,-2.4004,-2.4015,-2.3974,-2.397,-2.3945,-2.4012,-2.3944,-2.396,-2.3946,-2.3944,-2.3947,-2.4027,-2.4029,-2.4031,-2.4033,0,-2.4277,-2.4249,-2.4247,-2.4237,-2.4235,-2.4224,-2.4209,-2.4216,-2.4148,-2.4152,-2.4155,-2.4152,-2.4146,-2.4146,-2.4134,-2.4114,-2.4063,-2.4055,-2.4066,-2.4083,-2.4101,-2.4092,-2.3883,-2.405,-2.4048,-2.4047,-2.4046,-2.4045,-2.4404,-2.4422,-2.4391,-2.4391,-2.4373,-2.4361,-2.4373,-2.4338,-2.4339,-2.4329,-2.4292,-2.4302,-2.4276,-2.4254,-2.424,-2.4247,-2.4215,-2.4232,-2.4236,-2.4241,-2.4251,-2.4101,-2.4245,-2.4245,-2.4244,-2.4244,-2.4243,0,-2.4563,-2.454,-2.4541,-2.4521,-2.4521,-2.4472,-2.4452,-2.4457,-2.4466,-2.4445,-2.4442,-2.4446,-2.4446,-2.4405,-2.44,-2.4414,-2.439,-2.4415,-2.4413,-2.4409,-2.4281,-2.4271,-2.4434,-2.4434,-2.4434,-2.4434,-2.4434,-2.4434,-2.4646,-2.4675,-2.4644,-2.4664,-2.464,-2.4648,-2.4641,-2.4629,-2.4613,-2.462,-2.4619,-2.4592,-2.4564,-2.4556,-2.4554,-2.4542,-2.4543,-2.4576,-2.4557,-2.4437,-2.4418,-2.4401,-2.4391,-2.4577,-2.4577,-2.4684,-2.4685,-2.4686]},{"header":{"parameterUnit":"m.s-1","parameterCategory":1,"la1":30.2991,"la2":30.254,"lo1":-89.0895,"lo2":-89.0444,"dy":0.0017,"dx":0.0017,"nx":28,"ny":28,"refTime":"2023-08-29T21:00:00:Z","depth":0,"parameterNumber":3,"parameterNumberName":"V-component_of_WINDS"},"data":[0,0,0,0,0,0,0,0,0,0,0,0,0,0,0,0,0,0,0,0,0,0,0,0,0,0,0,0,0,0,0,0,0,0,0,0,0,0,0,0,0,0,0,0,0,0,0,0,0,0,0,0,0,0,0,0,0,0,0.7038,0.7038,0,0.7017,0.7016,0.7016,0.7016,0.7016,0.7016,0.7017,0.6991,0.699,0.6989,0,0,0,0,0,0,0,0,0,0,0,0,0,0.7076,0.7075,0.7038,0.7038,0.7038,0.7017,0.7016,0.7016,0.7016,0.7016,0.7017,0.7017,0.6992,0.699,0.6989,0,0,0,0,0,0,0,0,0,0,0,0,0,0.7057,0.7075,0.7038,0.7035,0.7035,0.7017,0.7016,0.7016,0.7016,0.7016,0.7017,0.7017,0.6992,0.6991,0.6989,0.6972,0,0,0.6985,0.6984,0,0,0,0,0,0,0,0,0.7058,0.7056,0.7036,0.7035,0.7035,0.702,0.702,0.7001,0.7016,0.7023,0.7017,0.7017,0.7,0.6998,0.6993,0.6971,0.697,0.6985,0.6984,0.6983,0.6983,0,0,0,0,0,0,0,0.706,0.7057,0.703,0.7035,0.7035,0.7034,0.7032,0.7017,0.7009,0.7022,0.7022,0.702,0.7,0.6994,0.6992,0.6969,0.6985,0.6984,0.6983,0.6982,0.6932,0.6932,0,0,0,0,0,0,0.7062,0.7058,0.703,0.7029,0.7048,0.7033,0.703,0.7024,0.7009,0.7008,0.7019,0.702,0.6997,0.6994,0.6991,0.6971,0.6983,0.6982,0.6981,0.6933,0.6932,0.6932,0,0,0,0,0,0,0.7063,0.706,0.7031,0.7043,0.704,0.7032,0.7024,0.7023,0.7018,0.7007,0.7006,0.7015,0.6997,0.6993,0.6977,0.697,0.6981,0.698,0.6933,0.6933,0.6932,0.6929,0,0,0,0,0,0,0.7064,0.706,0.7054,0.7043,0.7039,0.7018,0.7024,0.7022,0.7016,0.7016,0.7003,0.7001,0.6997,0.6979,0.6976,0.6968,0.6979,0.6934,0.6933,0.6932,0.6929,0.6928,0.6927,0,0,0,0,0,0.7065,0.7053,0.7054,0.705,0.7032,0.7018,0.7015,0.7011,0.7015,0.7009,0.7002,0.7002,0.6971,0.6978,0.6974,0.6965,0.6934,0.6933,0.6932,0.693,0.6928,0.6927,0,0,0,0,0,0,0.7062,0.7052,0.7052,0.7036,0.7028,0.7018,0.7009,0.7009,0.6999,0.6999,0.6994,0.6991,0.6975,0.6968,0.6976,0.6948,0.6953,0.6951,0.6953,0.6951,0.695,0.6951,0.6978,0,0,0,0,0,0.7059,0.705,0.7041,0.7028,0.7024,0.7017,0.7011,0.7009,0.6999,0.6996,0.6988,0.6978,0.6966,0.6958,0.6947,0.6929,0.6926,0.6921,0.692,0.6918,0.6917,0.6907,0.6904,0.6928,0.6928,0.6928,0,0,0.7054,0.7047,0.7041,0.7027,0.702,0.701,0.7014,0.7003,0.6994,0.6993,0.6978,0.6972,0.696,0.6943,0.6935,0.6937,0.691,0.6917,0.6916,0.6915,0.6905,0.6903,0.6901,0.6927,0.6927,0.6928,0,0,0.7038,0.7032,0.7021,0.7014,0.7005,0.7001,0.6998,0.6988,0.6984,0.6969,0.6968,0.6957,0.6937,0.6929,0.6922,0.6905,0.6904,0.6901,0.6894,0.6884,0.6882,0.688,0.6874,0.6872,0.6899,0.6899,0.6899,0,0.7032,0.7017,0.7014,0.7003,0.6997,0.6997,0.6985,0.6978,0.6965,0.696,0.6963,0.6938,0.693,0.6911,0.6907,0.6902,0.6898,0.6902,0.6883,0.6881,0.6879,0.6873,0.6871,0.6899,0.6899,0.6899,0.6899,0,0.701,0.6999,0.6991,0.698,0.6972,0.6961,0.6956,0.6948,0.6947,0.6943,0.6927,0.6918,0.6905,0.69,0.6898,0.6881,0.6882,0.6884,0.6889,0.6877,0.6871,0.6868,0.6899,0.6899,0.6899,0.6899,0,0,0.699,0.6979,0.6976,0.6971,0.696,0.6952,0.694,0.6928,0.6922,0.6913,0.6902,0.6886,0.6888,0.688,0.6877,0.6869,0.6855,0.6871,0.6871,0.6869,0.6835,0.6834,0.6831,0.6855,0.6854,0.6854,0.6836,0,0.6974,0.6954,0.6952,0.6934,0.6924,0.6924,0.6914,0.6906,0.6901,0.6892,0.6886,0.6875,0.6878,0.6873,0.6865,0.6859,0.6848,0.686,0.6844,0.6844,0.6847,0.6828,0.6827,0.681,0.6834,0.6834,0.6833,0,0.6951,0.6943,0.6924,0.6916,0.6912,0.6903,0.6892,0.6883,0.6874,0.6871,0.6863,0.6862,0.6849,0.6855,0.6836,0.6844,0.6838,0.6833,0.6833,0.6831,0.6837,0.6825,0.6805,0.6803,0.683,0.683,0.683,0,0.6939,0.6923,0.691,0.6906,0.6895,0.6889,0.6884,0.6876,0.6869,0.686,0.6855,0.6844,0.6837,0.6828,0.6823,0.6828,0.6805,0.681,0.6801,0.6802,0.6796,0.6797,0.6774,0.6792,0.6792,0.6793,0.6793,0,0.692,0.6909,0.6905,0.6896,0.6884,0.6881,0.6868,0.6863,0.6856,0.6846,0.6845,0.6836,0.683,0.682,0.6816,0.6801,0.6798,0.6795,0.6794,0.6795,0.6795,0.679,0.6791,0.6792,0.6792,0.6792,0.6792,0,0.6904,0.6901,0.6887,0.6879,0.6877,0.6867,0.686,0.6852,0.6848,0.6836,0.6832,0.6826,0.6814,0.6808,0.6792,0.679,0.6773,0.6773,0.6777,0.6776,0.6768,0.6768,0.6741,0.6737,0.6758,0.6758,0.6758,0,0.6892,0.6884,0.6875,0.687,0.6865,0.6855,0.6849,0.6846,0.6839,0.6829,0.6821,0.681,0.68,0.6781,0.6774,0.6762,0.6761,0.6752,0.6759,0.6761,0.6761,0.6761,0.676,0.6751,0.6751,0.6751,0.675,0,0.6872,0.6871,0.6862,0.6853,0.6846,0.6838,0.6831,0.6826,0.6821,0.6814,0.6802,0.6795,0.678,0.6768,0.6756,0.675,0.6749,0.6749,0.6746,0.6747,0.6749,0.6748,0.6773,0.6749,0.6749,0.6749,0.6749,0.6749,0.6857,0.685,0.6843,0.6834,0.6828,0.6821,0.6813,0.6809,0.6799,0.6788,0.6786,0.6774,0.6765,0.6749,0.6743,0.6732,0.6734,0.673,0.6729,0.6728,0.6728,0.6751,0.673,0.673,0.673,0.673,0.673,0,0.6837,0.6833,0.6824,0.6814,0.6807,0.6808,0.68,0.6793,0.6783,0.6775,0.6766,0.6753,0.6741,0.6734,0.6722,0.6715,0.6715,0.6712,0.6713,0.6711,0.6727,0.673,0.6713,0.6713,0.6713,0.6713,0.6713,0.6713,0.6825,0.6813,0.6811,0.6796,0.6791,0.678,0.6775,0.6769,0.6763,0.6748,0.674,0.6735,0.6727,0.6715,0.6705,0.6703,0.6698,0.6696,0.6694,0.6708,0.671,0.6712,0.6715,0.6695,0.6695,0.6679,0.6679,0.6679]}]]